Location: Mason Neck State Park
(38.6428°N, 77.1981°W)
Time: 08:28:30
(UTC-04:00)

Daily predictions for brighter satellites

Satellite Brightness Start Highest point End
(mag) Time Altitude Azimuth Time Altitude Azimuth Time Altitude Azimuth
Iridium 4 Rocket 4.1 20:58:17 10° SSE 21:03:32 42° E 21:08:26 10° NNE
Meteor 1-16 Rocket 4.3 21:03:20 10° N 21:08:54 64° E 21:14:36 10° SSE
Cosmos 1953 Rocket 4.2 21:04:58 10° SSE 21:08:55 36° E 21:12:57 10° NNE
Cosmos 1758 Rocket 3.8 21:09:43 10° S 21:14:02 52° E 21:18:19 10° NNE
Cosmos 1437 4.0 21:14:37 10° NNE 21:17:18 24° ENE 21:19:55 10° SE
Cosmos 1707 4.0 21:14:39 10° SSW 21:18:21 44° W 21:22:03 10° N
USA 215 3.4 21:12:06 10° SE 21:18:38 76° NE 21:25:12 10° NW
Cosmos 1674 4.1 21:15:58 10° SE 21:18:50 21° E 21:21:45 10° NE
Cosmos 1939 Rocket 4.2 21:19:43 10° S 21:23:34 41° W 21:27:24 10° NNW
Resurs 01 Rocket 2.1 21:23:28 10° S 21:27:49 61° W 21:32:14 10° NNW
Cosmos 1048 Rocket 4.2 21:22:56 10° SSW 21:28:14 78° WNW 21:33:38 10° NNE
Cosmos 1726 4.0 21:28:09 10° NNE 21:30:37 17° ENE 21:32:39 12° ESE
ERS-2 2.4 21:27:01 10° S 21:30:40 71° WSW 21:34:20 10° NNW
USA 186 4.1 21:28:28 10° SSW 21:31:00 21° W 21:33:27 10° NW
OAO 3 Rocket 3.4 21:28:08 10° W 21:33:00 57° S 21:37:43 11° ESE
Cosmos 921 Rocket 3.9 21:29:09 10° N 21:33:19 36° ENE 21:36:46 14° SE
Cosmos 1825 Rocket 3.9 21:33:54 10° SSW 21:38:20 69° W 21:42:48 10° N
SL-8 R/B 4.0 21:35:17 10° WSW 21:40:06 72° NNW 21:44:57 10° NE
Cosmos 2278 Rocket 3.3 21:37:10 12° SSE 21:41:03 23° E 21:45:24 10° NE
ARGOS 3.3 21:36:17 11° SSE 21:41:28 62° ENE 21:46:50 10° N
Cosmos 1315 Rocket 3.3 21:39:15 10° SSW 21:43:16 64° W 21:47:21 10° N
Cosmos 1461 4.3 21:39:45 10° SSE 21:43:22 24° ESE 21:47:07 10° ENE
MetOp-A 4.2 21:42:46 12° SSE 21:47:40 67° ENE 21:52:59 10° N
Spot 2 Rocket 4.1 21:43:42 10° S 21:48:38 56° W 21:53:37 10° NNW
Cosmos 1844 Rocket 2.9 21:51:53 10° SSW 21:57:33 77° WNW 22:03:14 10° NNE
Cosmos 220 Rocket 4.4 21:54:35 15° SSE 21:57:43 39° ESE 22:01:39 10° NE
COSMOS 2406 3.6 21:54:55 10° NNW 22:00:34 53° ENE 22:04:22 20° SE
Cosmos 1844 3.7 21:58:11 10° SSW 22:03:52 89° WNW 22:09:40 10° NNE
SL-08 RB Rocket 3.7 22:01:15 18° SSE 22:04:45 80° ENE 22:09:27 10° N
Cosmos 1238 Rocket 3.7 22:04:53 10° SSW 22:07:36 34° W 22:10:26 10° NNW
KORONAS-FOTON 3.8 22:05:23 18° S 22:08:09 68° E 22:12:04 10° NNE
ATLAS 3B R/B 3.0 22:01:58 10° NNW 22:08:28 54° NE 22:12:52 20° ESE
SPOT 5 3.6 22:06:25 21° SE 22:09:21 42° ENE 22:14:17 10° N
Cosmos 1110 Rocket 3.9 22:04:59 10° NNW 22:10:11 81° ENE 22:13:32 22° SSE
SL-14 R/B 4.3 22:09:27 25° ESE 22:10:22 28° E 22:13:44 10° NNE
USA 238 DEB 3.8 22:05:32 10° NNW 22:12:43 77° ENE 22:17:40 22° SE
USA 238 3.9 22:05:38 10° NNW 22:12:49 76° NE 22:17:45 22° SE
Cosmos 2084 3.8 22:10:25 10° NW 22:14:07 46° WSW 22:16:07 24° S
ATLAS 5 CENTAUR R/B 2.5 22:14:23 26° ESE 22:14:49 26° ESE 22:18:43 10° ENE
Lacrosse 5 4.1 22:11:25 10° W 22:15:46 28° NW 22:20:07 10° NNE
Cosmos 1346 Rocket 3.4 22:12:09 10° NNW 22:16:05 54° W 22:19:03 17° S
Cosmos-2242 3.6 22:13:36 10° NNW 22:17:55 56° W 22:21:19 16° S
S3M 4.0 22:15:36 14° S 22:21:04 73° E 22:27:28 10° N
Cosmos 1331 Rocket 4.0 22:17:22 10° NNW 22:22:37 88° WSW 22:25:40 26° SSE
SPOT 1/Viking Rocket 3.8 22:20:08 26° SE 22:22:48 54° ENE 22:27:48 10° N
H-2A R/B 2.3 22:18:46 17° S 22:22:48 68° WSW 22:28:12 10° NNW
Cosmos 494 Rocket 4.5 22:17:44 10° SSW 22:22:55 63° WNW 22:28:10 10° NNE
NOSS 3-2 (A) 4.3 22:16:48 10° NNW 22:24:20 62° NE 22:29:42 23° SE
Helios 1A 3.1 22:28:25 35° SE 22:29:57 58° ENE 22:34:06 10° N
Cosmos 2082 Rocket 3.9 22:25:45 10° N 22:30:04 21° NE 22:33:00 15° E
Cosmos 1833 Rocket 4.2 22:26:24 10° N 22:30:54 24° NE 22:33:38 17° E
Cosmos 1626 3.5 22:31:41 24° E 22:31:41 24° E 22:34:28 10° NE
Helios 1B rocket 2.8 22:28:58 10° NNE 22:32:54 44° E 22:33:41 39° SE
Cosmos 1908 4.1 22:32:20 10° NNW 22:36:03 46° W 22:38:07 23° SSW
Centaur D-1AR AC-36 4.3 22:32:38 10° WSW 22:36:50 13° SW 22:38:59 11° SSW
Cosmos 1842 Rocket 3.4 22:33:12 10° N 22:37:34 81° E 22:39:11 38° SSE
ATLAS 2AS CENTAUR R/B 4.1 22:30:46 10° WSW 22:38:17 47° NW 22:46:05 10° NNE
CZ-2C R/B 3.7 22:34:33 10° NE 22:38:59 26° E 22:39:35 25° ESE
Cosmos 1340 2.8 22:37:36 10° NNW 22:41:23 71° W 22:42:33 41° SSW
Cosmos 1553 Rocket 4.3 22:37:48 10° SSW 22:43:45 63° W 22:49:47 10° N
Landsat 7 3.8 22:42:27 38° SSE 22:44:12 71° ENE 22:48:57 10° N
SEDSat Delta rocket 4.3 22:40:04 10° SW 22:43:33 27° SSW 22:43:33 27° SSW
ERS-1 Rocket 3.6 22:46:45 24° SSW 22:49:36 50° W 22:54:31 10° NNW
NOSS 3-2 (C) 4.2 22:42:38 10° NNW 22:50:14 66° NE 22:54:47 29° SE
Cosmos 1302 Rocket 3.9 22:46:17 10° NNW 22:51:37 87° WSW 22:53:36 40° SSE
Cosmos 883 Rocket 4.4 22:55:18 32° S 22:58:23 79° E 23:04:38 10° N
Cosmos 1455 4.2 22:56:53 10° NNE 22:59:05 17° ENE 22:59:05 17° ENE
Cosmos 1300 2.6 22:57:13 10° N 23:01:03 82° W 23:01:28 68° SSW
Cosmos 2251 Rocket 4.1 22:56:52 10° SSW 23:02:05 56° WNW 23:07:19 10° N
Terra 1.8 23:02:30 50° SE 23:03:38 72° ENE 23:08:23 10° N
Cosmos 1386 Rocket 4.5 22:58:34 10° N 23:04:37 76° W 23:07:22 34° S
Cosmos 2315 Rocket 4.0 23:02:11 38° SSE 23:04:40 66° E 23:10:58 10° NNE
RESURS DK-1 3.2 23:06:04 35° ENE 23:06:04 35° ENE 23:09:03 10° NE
Cosmos 1726 3.9 23:02:42 10° NNW 23:05:53 27° W 23:07:13 21° SW
Okean 3 Rocket 3.6 23:06:52 56° ESE 23:07:07 57° E 23:11:26 10° NNE
Cosmos 2221 2.4 23:03:12 10° N 23:07:32 90° E 23:08:10 65° S
H-2A R/B 3.8 23:09:34 33° SSE 23:11:18 35° SE 23:38:40 10° E
NOSS 2-2 (E) 3.5 23:11:46 39° SW 23:13:05 69° NW 23:17:23 10° NNE
NOSS 3-4 (A) 3.8 23:09:20 10° SW 23:15:26 65° NW 23:21:48 10° NNE
NOSS 3-4 (C) 3.8 23:09:25 10° SW 23:15:31 66° NW 23:21:54 10° NNE
CENTAUR R/B 3.6 23:07:50 10° NNW 23:15:36 52° NE 23:20:13 27° ESE
Meteor 1-29 3.2 23:12:32 10° N 23:15:42 64° NW 23:15:42 64° NW
OAO 3 Rocket 4.0 23:11:41 10° W 23:15:31 35° SW 23:15:31 35° SW
CZ-2C R/B 3.2 23:19:33 48° SSE 23:21:20 89° ENE 23:27:07 10° NNW
Cosmos 1328 3.7 23:21:28 82° W 23:21:28 82° W 23:25:26 10° N
Meteor 1-11 4.3 23:20:56 50° SE 23:22:05 60° E 23:27:46 10° NNE
Cosmos 2278 Rocket 3.1 23:19:21 10° SW 23:24:46 46° WNW 23:30:14 10° N
Spot 4 4.1 23:33:05 51° E 23:33:31 53° ENE 23:38:16 10° N
IGS 5A 4.3 23:33:19 38° WSW 23:33:41 39° W 23:37:36 10° NNW
ATLAS 3B CENTAUR R/B 3.7 23:20:14 10° WSW 23:34:20 39° S 23:35:03 39° S
Cosmos 407 Rocket 4.1 23:35:40 39° E 23:35:40 39° E 23:39:58 10° NNE
Cosmos 1190 Rocket 4.1 23:49:20 56° E 23:49:20 56° E 23:54:12 10° NNE
Cosmos 405 Rocket 4.2 23:49:24 10° N 23:51:43 28° NE 23:51:43 28° NE
Cosmos 2369 Rocket 3.8 23:54:56 21° E 23:54:56 21° E 23:58:04 10° NE
